Flag for Western Sahara Weather past 2 weeks in El Aaiún, Western Sahara

Now
82 °F

Sunny.


Feels Like: 83 °F
Forecast: 68 / 82 °F
Wind: 21 mph from Northeast

Location: Laayoune/Hassan Isl

Current Time: Jul 3, 2015 at 1:17:59 PM

Latest Report: Jul 3, 2015 at 1:00 PM


Visibility: 10 mi

Pressure: 30.07 "Hg

Humidity: 48%

Dew point: 61 °F

Location of El AaiúnLocation

Historic Weather in El Aaiún — Graph

°F

El Aaiún temperature yesterday

Maximum temperature yesterday: 84 °F (at 3:00 PM)
Minimum temperature yesterday: 66 °F (at 5:00 AM)
Average temperature yesterday: 74 °F

Past Weeks' High & Low Weather Summary

 TemperatureHumidityPressure
High91 °F (Jun 29, 2:00 PM)88% (Jun 21, 3:00 AM)30.15 "Hg (Jun 21, 3:00 AM)
Low64 °F (Jun 19, 5:00 AM)33% (Jun 20, 3:00 PM)29.74 "Hg (Jul 1, 6:15 AM)
Average73 °F64%30.06 "Hg
* Reported Jun 18 12:00 Noon — Jul 3 12:00 Noon, El Aaiún, Weather by CustomWeather, © 2015

Note: Actual official high and low records may vary slightly from our data, if they occured in-between our weather recording intervals... More about our weather records

Advertising

El Aaiún weather history for previous 24 hours

 ConditionsComfort  
Time TempWeatherWind HumidityBarometerVisibility
12:00 PM
Fri, Jul 3
82 °FSunny.18 mph48%30.07 "Hg10 mi
11:00 AM79 °FSunny.18 mph54%30.07 "Hg10 mi
10:00 AM75 °FPassing clouds.18 mph65%30.07 "HgN/A
9:00 AM72 °FScattered clouds.21 mph73%30.07 "HgN/A
8:00 AM72 °FMild.20 mph73%30.07 "Hg5 mi
7:00 AM70 °FOvercast.18 mph78%30.04 "Hg5 mi
6:00 AM70 °FPassing clouds.20 mph73%30.04 "Hg5 mi
5:00 AM70 °FOvercast.21 mph73%30.04 "Hg5 mi
4:00 AM70 °FOvercast.17 mph73%30.04 "Hg5 mi
3:00 AM70 °FPassing clouds.16 mph73%30.04 "Hg5 mi
2:00 AM70 °FPassing clouds.17 mph78%30.07 "Hg5 mi
1:00 AM72 °FPassing clouds.18 mph73%30.07 "Hg5 mi
12:00 AM68 °FPassing clouds.16 mph78%30.07 "Hg5 mi
11:00 PM
Thu, Jul 2
72 °FPassing clouds.15 mph73%30.09 "Hg5 mi
10:00 PM72 °FPassing clouds.18 mph73%30.07 "Hg5 mi
9:00 PM72 °FPassing clouds.17 mph73%30.07 "HgN/A
8:00 PM75 °FSunny.17 mph65%30.04 "Hg10 mi
7:00 PM77 °FSunny.20 mph61%30.04 "Hg10 mi
6:00 PM79 °FSunny.20 mph58%30.01 "Hg10 mi
5:00 PM82 °FSunny.23 mph48%30.01 "Hg10 mi
4:00 PM82 °FSunny.21 mph48%30.01 "Hg10 mi
3:00 PM84 °FSunny.22 mph43%30.01 "Hg10 mi
2:00 PM82 °FSunny.20 mph45%30.01 "Hg10 mi
1:00 PM82 °FSunny.20 mph45%30.04 "Hg10 mi
Weather by CustomWeather, © 2015

See weather overviewHow to use our weather pages